Cloud_Cover
100 97 100 100 100 100 97 33 27 43 30 18 19 24 6 0 0 0 0 0 0 0 5 5 2 0 0 5 1 0 0 8 10 40 40 100 100 100 100 100 94 12 5 5 5
100 100 100 100 100 100 100 100 85 26 28 25 25 32 5 1 0 0 0 0 0 0 1 5 2 2 0 5 2 1 2 1 5 5 8 25 43 34 23 9 27 86 7 4 0
100 100 66 33 41 97 100 100 100 20 28 27 32 34 0 0 0 0 0 0 0 0 0 2 0 0 0 0 3 5 10 2 1 0 0 2 5 5 48 5 27 51 5 5 0
100 100 100 100 84 35 87 100 100 64 25 29 33 20 0 0 0 0 0 0 0 0 0 0 0 0 0 0 0 0 0 3 0 0 0 0 1 5 92 61 74 10 5 2 1
80 100 100 100 100 100 96 80 100 99 24 30 29 4 0 0 0 0 0 0 0 0 0 0 0 0 0 0 2 0 1 5 5 0 0 0 0 3 1 10 67 100 92 17 5
73 100 100 100 100 86 81 80 75 32 24 36 26 0 0 0 0 0 0 0 0 0 0 0 0 0 0 0 0 1 2 2 5 2 0 0 0 4 0 0 0 2 65 22 30
62 99 100 100 100 98 38 33 30 19 6 51 8 0 0 0 0 0 0 0 0 0 0 0 0 0 0 0 0 5 5 5 1 0 0 0 2 76 36 66 0 0 98 100 8
99 51 56 67 100 100 97 36 29 9 0 45 0 0 0 0 0 0 0 0 0 0 0 0 0 0 0 0 0 0 0 2 3 0 0 0 0 20 100 6 0 0 0 5 73
100 84 98 91 100 100 91 39 3 0 9 0 0 0 0 0 0 0 0 0 0 0 0 0 0 0 0 0 1 0 0 0 0 0 0 0 0 0 49 100 100 3 0 0 2
60 100 100 100 100 100 62 0 0 0 4 0 0 0 0 0 0 0 0 0 0 0 0 0 0 0 0 0 4 1 0 0 0 0 0 1 0 0 0 4 0 0 0 0 1
100 100 100 100 100 100 20 0 0 0 0 0 0 0 0 0 0 0 0 0 0 0 0 0 0 0 0 0 0 0 0 0 0 0 0 0 0 0 3 5 0 5 5 0 0
100 100 100 100 100 100 58 0 0 0 0 0 0 0 0 0 0 0 0 0 0 0 0 0 0 0 0 0 0 0 0 0 0 0 0 0 0 0 0 0 0 0 11 12 4
100 100 100 100 100 65 0 0 0 0 0 0 0 0 0 0 0 0 0 0 0 0 0 0 0 0 0 0 0 0 0 0 0 0 0 0 0 0 0 2 1 0 3 81 100
100 100 100 100 17 0 0 0 0 0 0 0 0 0 0 0 0 0 0 0 0 0 0 0 0 0 0 0 0 0 0 0 0 0 0 0 0 0 0 0 5 3 0 1 20
100 100 100 100 6 0 0 0 0 0 0 0 0 0 0 0 0 0 0 0 0 0 0 0 0 0 0 0 0 0 0 0 0 0 0 0 0 0 0 0 1 3 0 0 0
99 98 100 51 66 2 0 0 0 0 0 0 0 0 0 0 0 0 0 0 0 0 0 0 0 0 0 0 0 0 0 0 0 0 0 0 0 1 0 2 2 20 0 0 0
20 28 91 0 0 0 0 0 0 0 0 0 0 0 0 0 0 0 0 0 0 0 0 0 0 0 0 0 0 0 0 0 0 0 0 0 0 0 0 1 19 33 12 0 0
0 5 14 0 0 0 0 0 0 0 0 0 0 0 0 0 0 0 0 0 0 0 0 0 0 0 0 0 0 0 0 0 0 0 0 0 0 50 0 0 0 3 67 10 1
5 6 0 0 0 0 0 0 0 0 0 0 0 0 0 0 0 0 0 0 0 0 0 0 0 0 0 0 0 0 0 0 0 0 0 0 0 0 0 0 0 0 0 4 0
0 0 0 0 0 0 0 0 0 0 0 0 0 0 0 0 0 0 0 0 0 0 0 0 0 0 0 0 0 0 1 2 4 1 0 0 0 0 1 0 0 0 0 0 0
0 0 0 0 0 0 0 0 0 0 0 0 0 0 0 0 0 0 0 0 0 0 0 0 0 0 0 1 0 0 0 0 1 2 0 0 0 3 5 4 1 0 0 0 0
0 0 0 0 0 0 0 0 0 0 5 5 0 0 0 0 0 0 0 0 0 0 0 1 1 0 40 13 5 5 3 0 0 0 0 0 0 0 0 0 0 5 0 0 0
0 0 0 0 0 0 2 5 5 5 0 0 0 0 0 0 0 0 0 0 1 1 5 5 4 0 5 4 13 98 10 5 0 0 0 0 0 0 1 0 0 1 0 0 0
2 1 0 0 1 2 0 0 5 0 0 0 0 0 0 0 0 0 0 0 0 2 3 5 5 5 3 5 5 5 29 99 83 6 5 0 0 0 0 6 41 5 0 0 4
5 5 5 5 5 5 5 5 5 5 5 0 0 0 0 0 0 0 0 0 0 0 0 0 0 0 1 2 4 5 5 5 24 90 5 5 0 0 0 0 12 11 5 5 69
0 5 5 1 5 5 5 0 2 0 5 5 5 0 4 5 0 4 4 2 5 0 0 0 0 0 0 0 0 0 0 0 5 16 5 5 15 60 4 0 1 100 55 5 5
0 0 0 2 1 0 0 4 0 0 1 5 5 5 5 5 5 5 4 5 5 5 3 0 0 0 0 0 0 0 0 4 0 0 0 0 2 28 5 0 0 37 29 44 67